Northeast Philadelphia, PA

3:38 AM EDT on July 22, 2017 (GMT -0400)
Northeast Philadelphia

Weather History for KPNE - March, 2013

Change the Weather History Date:

Wednesday, March 13, 2013

  Actual Average Record
Temperature  
Mean Temperature 42 °F -  
Max Temperature 50 °F 47 °F 78 °F (2006)
Min Temperature 35 °F 30 °F 18 °F (2017)
Degree Days  
Heating Degree Days 24    
Moisture  
Dew Point 26 °F    
Average Humidity 54    
Maximum Humidity 73    
Minimum Humidity 37    
Precipitation  
Precipitation 0.00 in - - ()
Sea Level Pressure  
Sea Level Pressure 29.92 in    
Wind  
Wind Speed 10 mph (WNW)    
Max Wind Speed 18 mph    
Max Gust Speed 32 mph    
Visibility 10 miles    
Events      
Averages and records for this station are not official NWS values.
T = Trace of Precipitation, MM = Missing Value Source: NWS Daily Summary

Daily Weather History Graph

Daily Weather History Graph

Search for Another Location

Airport or City:

Trip Planner

Search our weather history database for the weather conditions in past years. The results will help you decide how hot, cold, wet, or windy it might be!

Date:

Astronomy

Mar. 13, 2013 Rise Set
Actual Time 7:14 AM EDT 7:05 PM EDT
Civil Twilight 6:47 AM EDT 7:32 PM EDT
Nautical Twilight 6:15 AM EDT 8:03 PM EDT
Astronomical Twilight 5:44 AM EDT 8:35 PM EDT
Moon 7:52 AM EDT (3/13) 9:19 PM EDT (3/13)
Length of Visible Light 12h 44m
Length of Day
11h 50m
Waxing Crescent, 4% of the Moon is Illuminated
Mar 13
Waxing Crescent
Mar 19
First Quarter
Mar 27
Full
Apr 3
Last Quarter
Apr 10
New

Hourly Weather History & Observations

Time (EDT) Temp. Windchill Dew Point Humidity Pressure Visibility Wind Dir Wind Speed Gust Speed Precip Events Conditions
12:54 AM 41.0 °F 34.3 °F 30.9 °F 67% 29.90 in 10.0 mi WNW 11.5 mph - N/A   Clear
2:54 AM 39.9 °F 33.9 °F 28.0 °F 63% 29.91 in 10.0 mi WNW 9.2 mph 20.7 mph N/A   Clear
3:54 AM 39.9 °F 32.9 °F 26.1 °F 58% 29.90 in 10.0 mi NW 11.5 mph 16.1 mph N/A   Clear
4:54 AM 39.0 °F 33.4 °F 27.0 °F 62% 29.92 in 10.0 mi WNW 8.1 mph - N/A   Clear
5:54 AM 37.0 °F 32.4 °F 27.0 °F 67% 29.93 in 10.0 mi West 5.8 mph - N/A   Clear
6:54 AM 35.1 °F 31.0 °F 27.0 °F 72% 29.94 in 10.0 mi WSW 4.6 mph - N/A   Clear
7:54 AM 36.0 °F 32.1 °F 28.0 °F 73% 29.94 in 10.0 mi West 4.6 mph - N/A   Clear
8:54 AM 41.0 °F 35.8 °F 28.0 °F 60% 29.95 in 10.0 mi West 8.1 mph - N/A   Clear
9:54 AM 43.0 °F 36.0 °F 27.0 °F 53% 29.94 in 10.0 mi WNW 13.8 mph 18.4 mph N/A   Clear
10:54 AM 45.0 °F 40.1 °F 26.1 °F 48% 29.93 in 10.0 mi WNW 9.2 mph 20.7 mph N/A   Clear
11:54 AM 46.0 °F 41.0 °F 27.0 °F 47% 29.92 in 10.0 mi WNW 10.4 mph 19.6 mph N/A   Partly Cloudy
12:54 PM 48.0 °F - 26.1 °F 42% 29.90 in 10.0 mi WNW 12.7 mph 20.7 mph N/A   Clear
1:54 PM 48.0 °F - 23.0 °F 37% 29.88 in 10.0 mi West 13.8 mph 24.2 mph N/A   Partly Cloudy
2:54 PM 48.9 °F - 24.1 °F 38% 29.86 in 10.0 mi West 12.7 mph 23.0 mph N/A   Overcast
3:54 PM 48.0 °F - 25.0 °F 41% 29.86 in 10.0 mi West 13.8 mph - N/A   Mostly Cloudy
4:54 PM 45.0 °F 37.4 °F 28.0 °F 52% 29.88 in 10.0 mi WNW 18.4 mph 32.2 mph N/A   Mostly Cloudy
5:54 PM 44.1 °F 38.1 °F 28.0 °F 53% 29.89 in 10.0 mi NW 11.5 mph - 0.00 in   Mostly Cloudy
6:54 PM 43.0 °F 37.2 °F 26.1 °F 51% 29.90 in 10.0 mi WNW 10.4 mph - N/A   Partly Cloudy
7:54 PM 41.0 °F 35.8 °F 25.0 °F 53% 29.91 in 10.0 mi West 8.1 mph - N/A   Clear
8:54 PM 39.9 °F 32.1 °F 24.1 °F 53% 29.94 in 10.0 mi WNW 13.8 mph - N/A   Scattered Clouds
9:54 PM 39.0 °F 30.3 °F 23.0 °F 53% 29.95 in 10.0 mi WNW 16.1 mph 26.5 mph N/A   Clear
10:54 PM 37.0 °F 28.5 °F 21.9 °F 54% 29.96 in 10.0 mi WNW 13.8 mph 24.2 mph N/A   Clear
11:54 PM 35.1 °F 27.4 °F 19.9 °F 54% 29.97 in 10.0 mi West 10.4 mph 20.7 mph N/A   Clear